Location: Vlissingen
(51.4500°N, 3.5830°E)
Time: 23:03:10
(UTC+02:00)

Daily predictions for brighter satellites

Satellite Brightness Start Highest point End
(mag) Time Altitude Azimuth Time Altitude Azimuth Time Altitude Azimuth
Cosmos 1869 3.5 21:26:24 10° S 21:30:12 50° E 21:34:03 10° NNE
Cosmos 1892 4.3 21:28:19 10° NNW 21:31:51 37° W 21:35:23 10° SSW
SPOT 5 4.1 21:28:14 10° ESE 21:32:06 25° ENE 21:35:50 10° N
Envisat 3.0 21:28:16 10° SSE 21:33:20 79° ENE 21:38:27 10° NNW
Cosmos 1302 Rocket 4.0 21:28:53 10° SSW 21:34:03 67° ESE 21:39:14 10° NNE
Cosmos 2360 Rocket 3.7 21:32:53 10° SE 21:35:57 15° E 21:39:01 10° ENE
Cosmos 1980 Rocket 2.2 21:30:21 10° SSW 21:36:02 80° ESE 21:41:47 10° NNE
Cosmos 220 Rocket 4.3 21:35:55 10° NNW 21:40:23 74° WSW 21:44:49 10° SSE
YAOGAN 6 3.0 21:39:58 10° SE 21:43:29 47° ENE 21:47:00 10° N
Meteor 1-29 3.2 21:40:12 10° NNE 21:43:37 47° E 21:46:58 10° S
Cosmos 1315 Rocket 4.1 21:41:47 10° NNW 21:45:42 44° W 21:49:34 10° SSW
CZ-4B DEB 2.9 21:46:29 10° S 21:49:30 68° WSW 21:52:34 10° NNW
Cosmos 1634 Rocket 4.1 21:44:51 10° S 21:51:10 84° E 21:57:33 10° N
Cosmos 1655 Rocket 4.1 21:45:27 10° N 21:51:54 79° E 21:58:18 10° SSE
SL-16 R/B 2.5 21:46:55 10° S 21:52:15 44° ESE 21:57:37 10° NE
Cosmos 1933 4.0 21:50:04 10° SSE 21:53:45 36° E 21:57:28 10° NNE
CENTAUR R/B 3.0 21:47:34 10° SW 21:53:53 72° NW 22:01:10 10° NE
ATLAS 5 CENTAUR R/B 2.4 21:49:43 10° NW 21:55:30 76° NE 22:01:30 12° SE
Cosmos 1908 Rocket 4.2 21:52:11 10° N 21:56:17 39° ENE 22:00:05 11° SE
H-2A R/B 4.0 21:55:51 10° E 21:58:32 17° NE 22:01:17 10° NNE
MetOp-B 4.4 21:56:52 10° SE 22:02:04 54° ENE 22:07:17 10° N
Cosmos 1825 2.6 21:58:19 10° NNW 22:02:06 63° W 22:05:51 10° S
SPOT 1/Viking Rocket 4.4 21:57:49 11° SE 22:02:12 34° ENE 22:06:53 10° N
Molniya-1 3.2 22:00:37 10° SSW 22:02:31 44° SE 22:05:16 10° NE
MOS 1-B Rocket 4.3 22:00:50 11° SE 22:06:12 46° ENE 22:11:32 10° N
Cosmos 2278 Rocket 4.0 22:03:16 10° NNW 22:07:33 21° NE 22:11:49 10° E
ERS-1 Rocket 3.0 22:02:46 10° SSE 22:07:48 81° ENE 22:12:51 10° NNW
Cosmos 1782 Rocket 4.4 22:06:15 10° N 22:10:14 34° ENE 22:13:14 16° SE
ARGOS 3.5 22:06:57 12° SE 22:11:39 51° ENE 22:16:52 10° N
Helios 1B rocket 2.7 22:08:06 10° N 22:12:13 71° WNW 22:16:18 10° SSW
Cosmos 1862 3.6 22:08:29 10° NNW 22:12:30 72° W 22:16:31 10° S
Okean 2 Rocket 4.3 22:08:40 10° N 22:12:37 28° ENE 22:15:27 16° ESE
Cosmos 2266 Rocket 4.2 22:08:04 10° N 22:14:11 55° ENE 22:19:47 13° SSE
Lacrosse 4 Rocket 2.7 22:11:08 10° NW 22:15:06 37° WSW 22:19:07 10° S
Cosmos 1733 Rocket 3.5 22:12:56 10° NNW 22:17:21 65° W 22:21:46 10° S
Cosmos 1844 Rocket 3.5 22:12:59 10° NNW 22:18:12 39° NE 22:22:24 15° ESE
SeaSat 1 2.5 22:17:52 15° SE 22:21:59 80° ENE 22:26:57 10° NNW
CZ-4C R/B 3.7 22:18:01 10° NW 22:24:12 41° NNE 22:31:11 10° E
Cosmos 1939 Rocket 4.3 22:22:38 10° SSW 22:26:25 37° W 22:30:10 10° NNW
Cosmos 1992 Rocket 4.0 22:21:46 10° S 22:26:57 65° ESE 22:32:10 10° NNE
USA 267 3.5 22:20:48 10° ENE 22:27:20 73° NNW 22:33:51 10° WSW
Cosmos 1862 Rocket 3.6 22:24:24 10° S 22:28:52 89° E 22:33:24 10° N
Cosmos 1782 4.5 22:31:05 17° E 22:31:50 18° E 22:34:33 10° NE
Cosmos 2279 Rocket 4.1 22:26:27 10° SSW 22:32:42 82° W 22:38:58 10° N
Terra 2.9 22:34:33 19° ESE 22:37:11 31° ENE 22:41:22 10° N
SL-08 RB Rocket 3.7 22:37:17 20° SSE 22:40:24 68° ENE 22:44:57 10° N
Cosmos 2219 Rocket 3.9 22:41:58 13° E 22:41:58 13° E 22:44:32 10° ENE
Okean 1-7 3.7 22:40:35 23° SE 22:42:36 36° E 22:46:40 10° NNE
Meteor 1-14 Rocket 4.2 22:37:57 10° NNW 22:43:37 83° ENE 22:48:01 18° SSE
Cosmos 1867 3.8 22:41:04 10° NW 22:46:29 66° SW 22:50:04 22° SSE
ATLAS 3B R/B 4.3 22:40:24 10° NW 22:46:37 30° N 22:52:34 10° ENE
YAOGAN 11 4.3 22:43:35 16° S 22:47:05 68° WSW 22:51:26 10° NNW
MetOp-A 4.4 22:43:13 13° S 22:48:01 68° WSW 22:53:23 10° NNW
Cosmos 1703 Rocket 3.6 22:45:42 19° S 22:48:48 59° E 22:53:09 10° NNE
H-2A R/B 2.0 22:50:57 24° SSE 22:53:59 69° ENE 22:58:55 10° N
Cosmos 2221 Rocket 3.8 22:51:49 25° SSE 22:54:08 51° E 22:58:27 10° NNE
Abrixas rocket 2.4 22:54:19 10° WSW 22:57:29 45° S 22:57:50 43° SSE
Cosmos 2263 Rocket 3.4 22:53:33 10° NW 22:58:35 36° WSW 23:03:16 12° S
Meteor 1-25 Rocket 4.1 22:54:40 10° NNW 23:00:20 84° ENE 23:03:51 24° SSE
Cosmos 968 Rocket 4.0 22:58:09 10° NNW 23:03:12 53° WSW 23:06:43 19° S
CARTOSAT-1 3.9 23:04:04 31° SE 23:05:44 49° ENE 23:09:56 10° N
COSMOS 2428 3.4 23:04:24 27° SE 23:06:11 33° ESE 23:11:14 10° NE
ASTEX 1 3.9 23:05:28 29° SE 23:07:31 44° ENE 23:12:15 10° N
Cosmos 2322 Rocket 2.8 23:03:05 10° SW 23:08:38 59° NW 23:14:14 10° NNE
Meteor 2-10 Rocket 3.9 23:03:55 10° SSW 23:09:45 76° WNW 23:15:34 10° N
SPOT 5 3.4 23:06:27 18° S 23:09:56 54° W 23:14:30 10° NNW
Cosmos 2084 4.0 23:07:47 10° NW 23:11:26 42° NE 23:13:02 27° E
Cosmos 2360 Rocket 2.1 23:13:22 10° SSW 23:19:01 79° ESE 23:24:44 10° NNE
Cosmos 1844 3.7 23:14:17 10° NNW 23:20:01 74° ENE 23:22:39 33° SE
Meteor 1-20 Rocket 4.2 23:14:59 10° NNW 23:20:32 78° W 23:23:44 27° S
Cosmos 1980 Rocket 4.5 23:15:55 10° W 23:20:43 27° NW 23:25:31 10° NNE
CZ-4B R/B 4.3 23:16:51 10° NE 23:20:57 28° E 23:21:18 27° ESE
Cosmos 1536 4.1 23:20:58 10° N 23:24:26 26° ENE 23:25:01 25° E
Cosmos 2322 3.6 23:20:40 10° SSW 23:26:23 78° ESE 23:32:06 10° NNE
H-2A R/B 2.0 23:32:37 42° S 23:34:00 77° WSW 23:38:23 10° NNW
Meteor 2-6 Rocket 4.4 23:33:26 33° SSE 23:36:02 61° E 23:41:55 10° NNE
SL-16 R/B 3.5 23:31:03 10° WSW 23:36:25 42° NW 23:41:49 10° NNE
CZ-4C R/B 3.7 23:37:25 43° E 23:37:48 45° ENE 23:41:21 10° N
ATLAS 5 CENTAUR R/B 3.7 23:34:50 10° WNW 23:39:56 30° WSW 23:43:04 20° SSW
SPOT 1/Viking Rocket 4.4 23:38:27 22° SSW 23:41:31 43° W 23:46:30 10° NNW
CENTAUR R/B 4.3 23:39:38 10° W 23:45:45 36° NNW 23:52:39 10° NE
Cosmos 2333 Rocket 2.9 23:46:21 33° ESE 23:46:40 33° ESE 23:51:46 10° NE
Cosmos 2333 4.3 23:46:12 37° S 23:48:16 59° ESE 23:53:57 10° NE
Cosmos 1745 Rocket 4.0 23:42:37 10° N 23:48:57 71° ENE 23:51:29 38° SSE
NOSS 3-1 (C) 4.0 23:49:33 35° ESE 23:49:48 35° ESE 23:55:38 10° NE
Okean 2 Rocket 4.2 23:46:36 10° NNW 23:50:49 38° W 23:52:50 25° SW
Cosmos 2278 Rocket 2.2 23:46:56 10° NNW 23:52:39 74° ENE 23:54:35 42° SE
USA 229 DEB 3.6 23:45:56 10° SSW 23:52:45 73° SE 23:59:44 10° NE
USA 229 3.6 23:46:02 10° SSW 23:52:50 73° SE 23:59:49 10° NE
Cosmos 1417 Rocket 4.4 23:50:03 35° S 23:52:55 77° E 23:59:18 10° NNE
IGS 5A 3.7 23:52:53 48° SSW 23:53:46 62° WSW 23:57:54 10° NNW
Cosmos 1606 2.6 23:53:48 70° SSW 23:54:11 83° WNW 23:58:00 10° N
Cosmos 2237 Rocket 3.2 23:54:25 28° ESE 23:54:25 28° ESE 23:59:04 10° NE
